Location: Joffre
(52.3362°N, 113.5373°W)
Time: 07:37:36
(UTC+00:00)

Envisat - Pass Details

Date: 29 November 2021
Orbit: 764 x 766 km, 98.2° (Epoch: 17 January)

Event Time Altitude Azimuth Distance (km) Brightness Sun altitude
Rises 13:36:04 0° 10° (N) 3,248 6.2 -14.9°
Reaches altitude 10° 13:38:28 10° 4° (N) 2,317 5.4 -14.6°
Maximum altitude 13:43:16 42° 294° (WNW) 1,081 3.3 -13.9°
Drops below altitude 10° 13:48:01 10° 225° (SW) 2,301 5.2 -13.2°
Sets 13:50:24 0° 219° (SW) 3,223 6.0 -12.8°
